Weather History for KDFW - June, 2013

Change the Weather History Date:

Saturday, June 29, 2013

  Actual Average Record
Temperature  
Mean Temperature 88 °F 84 °F  
Max Temperature 98 °F 94 °F 108 °F (1980)
Min Temperature 77 °F 74 °F 62 °F (1985)
Degree Days  
Heating Degree Days 0 0  
Month to date heating degree days 0 0  
Since 1 June heating degree days 0 0  
Since 1 July heating degree days 2045 2284  
Cooling Degree Days 23 19  
Month to date cooling degree days 520 473  
Year to date cooling degree days 909 895  
Since 1 June cooling degree days 520 473  
Growing Degree Days 38 (Base 50)    
Moisture  
Dew Point 62 °F    
Average Humidity 52    
Maximum Humidity 79    
Minimum Humidity 25    
Precipitation  
Precipitation 0.00 in 0.10 in 2.64 in (2004)
Month to date precipitation 2.14 3.69  
Year to date precipitation 15.30 19.94  
Sea Level Pressure  
Sea Level Pressure 29.83 in    
Wind  
Wind Speed 8 mph (North)    
Max Wind Speed 18 mph    
Max Gust Speed 23 mph    
Visibility 10 miles    
Events      
T = Trace of Precipitation, MM = Missing Value Source: NWS Daily Summary

Daily Weather History Graph

Daily Weather History Graph

Search for Another Location

Airport or City:

Trip Planner

Search our weather history database for the weather conditions in past years. The results will help you decide how hot, cold, wet, or windy it might be!

Date:

Astronomy

Jun. 29, 2013 Rise Set
Actual Time 6:22 AM CDT 8:40 PM CDT
Civil Twilight 5:54 AM CDT 9:09 PM CDT
Nautical Twilight 5:19 AM CDT 9:44 PM CDT
Astronomical Twilight 4:40 AM CDT 10:22 PM CDT
Moon 12:32 AM CDT (6/29) 1:11 PM CDT (6/29)
Length of Visible Light 15h 14m
Length of Day
14h 17m
Waning Gibbous, 55% of the Moon is Illuminated
Jun 29
Waning Gibbous
Jun 29
Last Quarter
Jul 8
New
Jul 15
First Quarter
Jul 22
Full

Hourly Weather History & Observations

Time (CDT) Temp. Heat Index Dew Point Humidity Pressure Visibility Wind Dir Wind Speed Gust Speed Precip Events Conditions
12:53 AM 82.9 °F 85.0 °F 66.0 °F 56% 29.83 in 10.0 mi NNW 5.8 mph - N/A   Clear
1:53 AM 81.0 °F 83.0 °F 66.0 °F 60% 29.83 in 10.0 mi Calm Calm - N/A   Clear
2:53 AM 82.0 °F 84.1 °F 66.0 °F 58% 29.83 in 10.0 mi North 4.6 mph - N/A   Clear
3:53 AM 80.1 °F 82.7 °F 68.0 °F 67% 29.82 in 10.0 mi North 3.5 mph - N/A   Partly Cloudy
4:53 AM 79.0 °F - 71.1 °F 77% 29.83 in 10.0 mi NNW 3.5 mph - N/A   Scattered Clouds
5:53 AM 78.1 °F - 72.0 °F 81% 29.84 in 10.0 mi NNW 6.9 mph - N/A   Scattered Clouds
6:53 AM 78.1 °F - 68.0 °F 71% 29.85 in 10.0 mi North 6.9 mph - N/A   Mostly Cloudy
7:53 AM 80.1 °F 82.7 °F 68.0 °F 67% 29.86 in 10.0 mi North 4.6 mph - N/A   Mostly Cloudy
8:53 AM 84.0 °F 87.0 °F 68.0 °F 58% 29.86 in 10.0 mi North 9.2 mph - N/A   Mostly Cloudy
9:53 AM 88.0 °F 91.4 °F 68.0 °F 51% 29.87 in 10.0 mi North 10.4 mph - N/A   Mostly Cloudy
10:53 AM 91.9 °F 94.1 °F 64.9 °F 41% 29.87 in 10.0 mi North 9.2 mph - N/A   Mostly Cloudy
11:53 AM 93.9 °F 93.2 °F 59.0 °F 31% 29.88 in 10.0 mi NNE 16.1 mph - N/A   Mostly Cloudy
12:53 PM 91.9 °F 90.6 °F 57.0 °F 31% 29.86 in 10.0 mi North 10.4 mph - N/A   Mostly Cloudy
1:53 PM 95.0 °F 94.0 °F 57.9 °F 29% 29.86 in 10.0 mi NNW 9.2 mph 16.1 mph N/A   Mostly Cloudy
2:53 PM 97.0 °F 95.3 °F 55.9 °F 25% 29.83 in 10.0 mi North 12.7 mph - N/A   Mostly Cloudy
3:53 PM 97.0 °F 95.0 °F 55.0 °F 24% 29.82 in 10.0 mi NNE 13.8 mph - N/A   Scattered Clouds
4:53 PM 97.0 °F 95.7 °F 57.0 °F 26% 29.80 in 10.0 mi NNE 13.8 mph - N/A   Scattered Clouds
5:53 PM 96.1 °F 94.8 °F 57.0 °F 27% 29.78 in 10.0 mi NNE 13.8 mph - N/A   Mostly Cloudy
6:53 PM 93.9 °F 92.6 °F 57.0 °F 29% 29.78 in 10.0 mi NNE 11.5 mph - N/A   Mostly Cloudy
7:53 PM 91.9 °F 90.6 °F 57.0 °F 31% 29.78 in 10.0 mi North 12.7 mph - N/A   Scattered Clouds
8:53 PM 88.0 °F 87.1 °F 59.0 °F 37% 29.80 in 10.0 mi NNE 8.1 mph - N/A   Partly Cloudy
9:53 PM 86.0 °F 85.4 °F 59.0 °F 40% 29.81 in 10.0 mi NE 10.4 mph - N/A   Partly Cloudy
10:53 PM 82.9 °F 82.8 °F 59.0 °F 44% 29.82 in 10.0 mi NNE 6.9 mph - N/A   Partly Cloudy
11:53 PM 80.1 °F 80.7 °F 59.0 °F 48% 29.81 in 10.0 mi Calm Calm - N/A   Scattered Clouds